Location: Chandrammap?lem
(16.9200°N, 81.0051°E)
Time: 21:22:44
(UTC+00:00)

ASTRO E2 - Pass Details

Date: 29 May 2024
Orbit: 426 x 431 km, 31.4° (Epoch: 14 June)

Event Time Altitude Azimuth Distance (km) Brightness Sun altitude
Exits shadow 22:18:41 36° 357° (N) 681 3.5 -22.6°
Drops below altitude 10° 22:21:27 10° 46° (NE) 1,503 6.1 -22.1°
Sets 22:23:40 0° 54° (NE) 2,367 7.6 -21.6°
